Back to catalog

STARLINK-5386

AliveCommunicationsVLEO
NORAD 54834·PAYLOAD·🇺🇸 United States

Launched Dec 28, 2022 from Cape Canaveral Space Force Station

Loading…

Next Passes (next 24 hours)

TLE

FreshSource: CelesTrak SupGP

Epoch: Sep 14, 2026, 14:50 UTC

1 54834C 22177Q   26257.61854167  .00035359  00000+0  12809-2 0  2576
2 54834  43.0022 149.4902 0001658 259.2514  73.0332 15.27555183    15

Track STARLINK-5386 in real time with AllMySat

Download on the App Store